Powrót do katalogu

FENGYUN 1C DEB

AktywnyLEO
NORAD 30121·DEBRIS·🇨🇳 China

Wystrzelony May 10, 1999 z Taiyuan Satellite Launch Center

Loading…

Następne Przeloty (najbliższe 24 godziny)

TLE

ŚwieżeSource: Space-Track

Epoka: Sep 14, 2026, 14:46 UTC

1 30121U 99025SA  26257.61545318  .00005992  00000-0  17687-2 0  9993
2 30121 102.1616  39.7686 0030431 159.2370 263.5149 14.43861647 15070

Śledź FENGYUN 1C DEB w czasie rzeczywistym z AllMySat

Download on the App Store